When you browse on this site, cookies collect data to enhance your experience and personalize the content and advertising you see.
Visit our Privacy Policy to learn more. By continuing to use the site, you agree to this use of cookies and data.
  • En España
  • Lista de países
  • Para 7 días
  • Temperatura del agua
  • Mapa Satelital
  • El tiempo en el mapa
  • Informadores
  • user-avatar
    Iniciar sesión

    Tiempo cada hora Rijeka

    Hoy, 21 Abril, Domingo

    Tiempo Temperatura Precipitaciones Viento Presión Humedad
    00:00 +12°C° 0 mm 2 mps 759 mmHg 64%
    01:00 +12°C° 0 mm 2 mps 759 mmHg 61%
    02:00 +12°C° 0 mm 2 mps 759 mmHg 60%
    03:00 +12°C° 0 mm 2 mps 758 mmHg 59%
    04:00 +12°C° 0 mm 2 mps 758 mmHg 57%
    05:00 +13°C° 0 mm 2 mps 758 mmHg 57%
    06:00 +14°C° 0 mm 2 mps 758 mmHg 56%
    07:00 +15°C° 0 mm 2 mps 758 mmHg 52%
    08:00 +17°C° 0 mm 2 mps 757 mmHg 45%
    09:00 +20°C° 0 mm 2 mps 757 mmHg 39%
    10:00 +23°C° 0 mm 2 mps 757 mmHg 32%
    11:00 +23°C° 0 mm 2 mps 757 mmHg 31%
    12:00 +24°C° 0 mm 2 mps 756 mmHg 31%
    13:00 +25°C° 0 mm 3 mps 756 mmHg 31%
    14:00 +24°C° 0 mm 2 mps 756 mmHg 33%
    15:00 +23°C° 0 mm 2 mps 755 mmHg 34%
    16:00 +21°C° 0 mm 2 mps 755 mmHg 36%
    17:00 +19°C° 0 mm 2 mps 755 mmHg 44%
    18:00 +18°C° 0 mm 1 mps 755 mmHg 52%
    19:00 +14°C° 0 mm 1 mps 755 mmHg 60%
    20:00 +14°C° 0 mm 1 mps 755 mmHg 60%
    21:00 +13°C° 0 mm 1 mps 755 mmHg 59%
    22:00 +12°C° 0 mm 1 mps 755 mmHg 59%
    23:00 +12°C° 0 mm 1 mps 755 mmHg 61%

    Mañana, 22 Abril, Lunes

    Tiempo Temperatura Precipitaciones Viento Presión Humedad
    00:00 +12°C° 0 mm 1 mps 755 mmHg 63%
    01:00 +12°C° 0 mm 1 mps 755 mmHg 65%
    02:00 +12°C° 0 mm 1 mps 754 mmHg 72%
    03:00 +11°C° 0 mm 1 mps 754 mmHg 79%
    04:00 +11°C° 0 mm 1 mps 754 mmHg 86%
    05:00 +12°C° 0 mm 1 mps 753 mmHg 82%
    06:00 +13°C° 0 mm 1 mps 753 mmHg 77%
    07:00 +14°C° 0 mm 1 mps 752 mmHg 72%
    08:00 +16°C° 0 mm 1 mps 752 mmHg 66%
    09:00 +17°C° 0 mm 2 mps 751 mmHg 59%
    10:00 +19°C° 0 mm 2 mps 751 mmHg 53%
    11:00 +19°C° 0 mm 2 mps 751 mmHg 52%
    12:00 +20°C° 0 mm 2 mps 750 mmHg 51%
    13:00 +20°C° 0 mm 2 mps 750 mmHg 50%
    14:00 +20°C° 0 mm 2 mps 749 mmHg 52%
    15:00 +20°C° 0 mm 2 mps 749 mmHg 54%
    16:00 +20°C° 0 mm 1 mps 748 mmHg 56%
    17:00 +19°C° 0 mm 1 mps 748 mmHg 64%
    18:00 +16°C° 0 mm 1 mps 748 mmHg 72%
    19:00 +15°C° 0 mm 1 mps 747 mmHg 81%
    20:00 +15°C° 0 mm 1 mps 747 mmHg 83%
    21:00 +14°C° 0 mm 1 mps 747 mmHg 85%
    22:00 +14°C° 0 mm 1 mps 747 mmHg 87%
    23:00 +14°C° 0.4 mm 2 mps 747 mmHg 88%

    Pasado mañana, 23 Abril, Martes

    Tiempo Temperatura Precipitaciones Viento Presión Humedad
    00:00 +14°C° 0.4 mm 2 mps 747 mmHg 89%
    01:00 +14°C° 0.4 mm 2 mps 746 mmHg 91%
    02:00 +14°C° 2.4 mm 2 mps 746 mmHg 92%
    03:00 +13°C° 2.4 mm 2 mps 745 mmHg 94%
    04:00 +13°C° 2.4 mm 2 mps 745 mmHg 96%
    05:00 +13°C° 1 mm 2 mps 745 mmHg 96%
    06:00 +12°C° 1 mm 3 mps 745 mmHg 96%
    07:00 +12°C° 1 mm 3 mps 745 mmHg 96%
    08:00 +13°C° 0.2 mm 3 mps 745 mmHg 95%
    09:00 +14°C° 0.2 mm 4 mps 745 mmHg 94%
    10:00 +14°C° 0.2 mm 4 mps 745 mmHg 93%
    11:00 +15°C° 0.2 mm 4 mps 745 mmHg 92%
    12:00 +15°C° 0.2 mm 5 mps 745 mmHg 91%
    13:00 +16°C° 0.2 mm 5 mps 745 mmHg 90%
    14:00 +16°C° 0.5 mm 5 mps 745 mmHg 92%
    15:00 +17°C° 0.5 mm 4 mps 745 mmHg 93%
    16:00 +15°C° 0.5 mm 4 mps 745 mmHg 95%
    17:00 +15°C° 0.3 mm 4 mps 745 mmHg 96%
    18:00 +16°C° 0.3 mm 3 mps 745 mmHg 97%
    19:00 +16°C° 0.3 mm 3 mps 745 mmHg 98%
    20:00 +16°C° 0.3 mm 2 mps 746 mmHg 97%
    21:00 +16°C° 0.3 mm 2 mps 747 mmHg 97%
    22:00 +15°C° 0.3 mm 2 mps 747 mmHg 96%
    23:00 +15°C° 0.1 mm 2 mps 748 mmHg 96%

    24 Abril, Miércoles

    Tiempo Temperatura Precipitaciones Viento Presión Humedad
    00:00 +15°C° 0.1 mm 2 mps 748 mmHg 96%
    01:00 +14°C° 0.1 mm 3 mps 749 mmHg 96%
    02:00 +14°C° 0.1 mm 3 mps 749 mmHg 96%
    03:00 +15°C° 0.1 mm 2 mps 749 mmHg 97%
    04:00 +15°C° 0.1 mm 2 mps 750 mmHg 97%
    05:00 +14°C° 0.1 mm 3 mps 750 mmHg 97%
    06:00 +14°C° 0.1 mm 3 mps 750 mmHg 96%
    07:00 +14°C° 0.1 mm 3 mps 751 mmHg 95%
    08:00 +16°C° 0.1 mm 3 mps 751 mmHg 94%
    09:00 +15°C° 0.1 mm 4 mps 752 mmHg 93%
    10:00 +17°C° 0.1 mm 4 mps 753 mmHg 91%
    11:00 +17°C° 0.2 mm 4 mps 753 mmHg 90%
    12:00 +17°C° 0.2 mm 4 mps 753 mmHg 88%
    13:00 +18°C° 0.2 mm 4 mps 753 mmHg 87%
    14:00 +18°C° 0.1 mm 4 mps 753 mmHg 87%
    15:00 +18°C° 0.1 mm 4 mps 753 mmHg 87%
    16:00 +18°C° 0.1 mm 3 mps 753 mmHg 87%
    17:00 +17°C° 0 mm 2 mps 753 mmHg 90%
    18:00 +16°C° 0 mm 2 mps 753 mmHg 94%
    19:00 +15°C° 0 mm 1 mps 753 mmHg 97%
    20:00 +15°C° 0 mm 1 mps 753 mmHg 97%
    21:00 +14°C° 0 mm 1 mps 754 mmHg 97%
    22:00 +14°C° 0 mm 1 mps 754 mmHg 98%
    23:00 +14°C° 0 mm 1 mps 754 mmHg 97%

    25 Abril, Jueves

    Tiempo Temperatura Precipitaciones Viento Presión Humedad
    00:00 +14°C° 0 mm 1 mps 754 mmHg 97%
    01:00 +14°C° 0 mm 1 mps 754 mmHg 97%
    02:00 +14°C° 0 mm 1 mps 754 mmHg 96%
    03:00 +14°C° 0 mm 1 mps 754 mmHg 96%
    04:00 +14°C° 0 mm 1 mps 753 mmHg 96%
    05:00 +15°C° 0 mm 1 mps 754 mmHg 93%
    06:00 +16°C° 0 mm 1 mps 754 mmHg 91%
    07:00 +17°C° 0 mm 2 mps 754 mmHg 89%
    08:00 +18°C° 0 mm 2 mps 754 mmHg 84%
    09:00 +19°C° 0 mm 3 mps 754 mmHg 79%
    10:00 +20°C° 0 mm 4 mps 754 mmHg 74%
    11:00 +21°C° 0 mm 3 mps 754 mmHg 70%
    12:00 +22°C° 0 mm 3 mps 754 mmHg 66%
    13:00 +24°C° 0 mm 3 mps 754 mmHg 63%
    14:00 +22°C° 0 mm 3 mps 754 mmHg 63%
    15:00 +22°C° 0 mm 3 mps 754 mmHg 64%
    16:00 +23°C° 0 mm 2 mps 753 mmHg 64%
    17:00 +20°C° 0 mm 2 mps 753 mmHg 73%
    18:00 +19°C° 0 mm 1 mps 753 mmHg 81%
    19:00 +16°C° 0 mm 1 mps 753 mmHg 89%
    20:00 +16°C° 0 mm 1 mps 753 mmHg 91%
    21:00 +15°C° 0 mm 1 mps 753 mmHg 93%
    22:00 +15°C° 0 mm 1 mps 754 mmHg 95%
    23:00 +15°C° 0 mm 1 mps 753 mmHg 96%

    26 Abril, Viernes

    Tiempo Temperatura Precipitaciones Viento Presión Humedad
    00:00 +15°C° 0 mm 1 mps 753 mmHg 97%
    01:00 +15°C° 0 mm 1 mps 753 mmHg 97%
    02:00 +15°C° 0 mm 1 mps 753 mmHg 97%
    03:00 +16°C° 0 mm 1 mps 752 mmHg 96%
    04:00 +16°C° 0 mm 2 mps 752 mmHg 96%
    05:00 +16°C° 0.2 mm 2 mps 752 mmHg 96%
    06:00 +16°C° 0.2 mm 3 mps 752 mmHg 96%
    07:00 +17°C° 0.2 mm 3 mps 752 mmHg 96%
    08:00 +17°C° 0.3 mm 4 mps 752 mmHg 96%
    09:00 +17°C° 0.3 mm 4 mps 752 mmHg 96%
    10:00 +16°C° 0.3 mm 5 mps 752 mmHg 96%
    11:00 +17°C° 0.1 mm 4 mps 751 mmHg 91%
    12:00 +18°C° 0.1 mm 4 mps 751 mmHg 87%
    13:00 +18°C° 0.1 mm 4 mps 751 mmHg 82%
    14:00 +18°C° 0 mm 4 mps 751 mmHg 77%
    15:00 +18°C° 0 mm 4 mps 751 mmHg 72%
    16:00 +19°C° 0 mm 4 mps 750 mmHg 67%
    17:00 +17°C° 0 mm 3 mps 751 mmHg 74%
    18:00 +16°C° 0 mm 2 mps 751 mmHg 81%
    19:00 +14°C° 0 mm 2 mps 751 mmHg 89%
    20:00 +14°C° 0 mm 2 mps 751 mmHg 90%
    21:00 +13°C° 0 mm 2 mps 752 mmHg 92%
    22:00 +12°C° 0 mm 2 mps 752 mmHg 94%
    23:00 +12°C° 0.2 mm 2 mps 753 mmHg 92%
    Mostrar más